Probability
39 39 35 35 32 32 23 19 19 16 13 13 13 10 13 13 6 6 10 3 0 0 0 0 0 0 0 0 0 0 0 0 0 0 0 0 0 0
45 42 39 29 29 23 23 16 16 16 10 6 13 10 10 6 3 10 10 3 0 0 0 0 0 0 0 0 0 0 0 0 0 0 0 0 0 0
29 29 35 35 19 23 26 29 23 26 19 6 6 6 10 13 10 10 10 10 10 0 0 0 0 0 0 0 0 0 0 0 0 0 0 0 0 0
29 32 32 32 35 23 23 16 23 26 19 13 6 6 10 6 13 13 6 3 10 0 0 0 0 0 0 0 0 0 0 0 0 0 0 0 0 0
23 26 26 23 29 19 16 13 19 13 16 10 10 6 6 10 13 10 6 13 3 3 0 0 0 0 0 0 0 0 0 0 0 0 0 0 0 0
26 23 19 16 16 23 16 23 16 16 13 13 6 6 6 10 10 6 10 13 6 3 3 3 0 0 0 0 0 0 0 0 0 0 0 0 0 0
19 19 13 10 6 10 6 16 19 16 13 10 6 6 6 6 6 6 6 6 6 3 6 6 3 6 3 0 0 0 0 0 0 0 0 0 0 0
19 16 13 10 10 3 6 6 6 19 13 16 6 6 6 6 6 6 6 6 6 6 3 3 3 3 6 3 3 0 0 0 0 0 0 0 0 0
19 19 6 6 6 13 6 3 3 0 3 13 13 6 6 6 6 6 6 6 6 6 3 3 3 3 3 3 3 3 0 0 0 0 0 0 0 0
16 13 13 13 10 6 6 6 6 13 10 10 10 6 6 6 6 6 6 6 6 6 6 6 3 3 3 3 3 3 0 0 0 0 0 0 0 0
10 10 10 10 6 3 6 10 6 10 6 3 6 6 6 6 6 6 6 6 6 6 6 6 6 3 3 3 3 3 0 0 0 0 0 0 0 0
13 10 6 6 3 0 3 6 6 6 3 3 6 6 6 6 0 6 6 6 6 6 6 6 6 3 3 3 3 3 3 0 0 0 0 0 0 0
13 10 10 0 3 0 3 6 3 3 3 3 6 6 10 10 6 6 6 6 6 6 6 6 6 3 3 3 3 3 3 3 3 0 0 0 0 0
16 16 10 0 0 0 0 0 0 0 3 3 3 6 6 6 10 6 6 6 6 6 6 6 6 3 3 0 0 0 0 0 0 0 0 0 0 0
19 10 3 0 0 0 0 0 0 3 3 3 6 10 3 0 0 3 3 3 0 0 0 0 3 3 0 0 0 0 0 0 0 0 0 0 0 0
3 3 0 0 0 0 0 0 0 0 0 0 0 3 3 0 0 3 3 0 0 0 0 0 0 0 0 0 0 0 0 0 0 0 0 0 0 0
10 13 10 3 0 3 3 3 0 0 0 0 0 3 3 0 0 0 0 0 0 0 0 0 3 3 0 0 0 0 0 0 0 0 0 0 0 0
0 10 10 10 3 3 0 0 0 3 0 0 0 0 0 3 3 3 0 0 0 0 0 0 0 3 0 0 0 0 0 0 0 3 0 0 0 0
0 6 6 6 6 3 0 0 0 3 3 0 0 0 0 0 3 3 0 0 0 0 0 0 0 0 0 0 0 0 0 0 0 3 0 0 0 0
3 6 10 10 10 10 3 3 3 3 3 3 3 6 3 0 0 3 3 0 0 0 0 0 0 0 0 0 0 0 0 0 3 0 0 3 3 0
6 10 10 10 10 10 6 3 3 3 3 6 6 6 6 6 0 3 0 0 0 0 0 0 0 0 0 3 0 0 0 0 0 0 0 0 0 0
10 10 6 10 10 13 10 10 6 6 6 10 6 3 6 0 0 0 0 0 0 0 0 0 0 0 0 0 0 0 0 0 0 0 0 0 0 0
10 13 13 10 13 6 10 10 13 6 6 3 3 3 3 0 0 0 0 0 0 0 0 0 0 0 0 0 0 0 0 0 0 0 0 0 0 0
Height
5886 5885 5884 5882 5881 5879 5878 5876 5875 5873 5871 5869 5868 5866 5864 5863 5861 5860 5859 5857 5855 5854 5852 5851 5849 5847 5846 5844 5843 5841 5839 5837 5836 5834 5832 5830 5829 5827
5884 5883 5881 5880 5878 5877 5875 5873 5872 5870 5868 5867 5865 5863 5862 5860 5859 5857 5855 5854 5852 5850 5848 5847 5845 5843 5841 5839 5838 5836 5834 5832 5830 5828 5826 5825 5823 5822
5882 5880 5879 5877 5876 5874 5873 5871 5869 5867 5865 5864 5862 5860 5859 5857 5855 5854 5852 5850 5848 5846 5844 5843 5841 5839 5837 5835 5833 5831 5829 5827 5825 5823 5821 5819 5817 5816
5880 5878 5876 5875 5873 5872 5870 5868 5866 5864 5862 5861 5859 5857 5855 5854 5852 5850 5848 5846 5844 5842 5840 5838 5836 5834 5832 5830 5828 5826 5824 5822 5819 5817 5815 5814 5811 5809
5877 5875 5874 5872 5870 5869 5867 5865 5863 5861 5859 5857 5855 5853 5852 5850 5848 5846 5844 5842 5840 5838 5836 5833 5831 5829 5827 5825 5823 5821 5818 5816 5814 5812 5810 5807 5805 5803
5874 5872 5871 5869 5867 5865 5863 5861 5859 5857 5855 5853 5851 5849 5847 5845 5843 5842 5840 5837 5835 5833 5831 5829 5826 5824 5822 5820 5818 5816 5813 5811 5808 5806 5804 5801 5799 5797
5870 5869 5867 5866 5864 5862 5859 5857 5855 5853 5851 5849 5847 5845 5843 5840 5838 5836 5834 5832 5830 5827 5825 5823 5821 5819 5817 5814 5812 5810 5807 5805 5802 5800 5797 5795 5792 5790
5866 5865 5863 5862 5860 5858 5855 5853 5850 5848 5846 5844 5842 5839 5837 5835 5833 5830 5828 5826 5824 5822 5820 5818 5815 5813 5811 5808 5806 5804 5801 5799 5796 5793 5791 5788 5785 5783
5862 5861 5859 5857 5855 5853 5850 5848 5846 5843 5841 5839 5836 5834 5831 5829 5827 5824 5822 5820 5818 5815 5813 5811 5809 5807 5804 5802 5800 5797 5795 5792 5789 5786 5784 5781 5778 5775
5858 5856 5854 5851 5849 5847 5845 5843 5840 5838 5835 5833 5831 5828 5826 5823 5821 5818 5816 5814 5811 5809 5807 5805 5803 5800 5797 5795 5793 5790 5787 5785 5782 5779 5776 5773 5770 5767
5853 5851 5848 5846 5844 5841 5839 5837 5835 5832 5830 5827 5824 5822 5819 5817 5815 5812 5810 5807 5805 5803 5800 5797 5795 5792 5790 5788 5785 5782 5779 5777 5774 5771 5768 5765 5762 5759
5847 5845 5843 5840 5838 5835 5833 5831 5828 5826 5823 5821 5818 5815 5813 5810 5808 5805 5803 5800 5798 5795 5793 5790 5787 5784 5782 5780 5777 5774 5771 5768 5766 5763 5760 5756 5753 5750
5841 5838 5836 5834 5832 5829 5827 5824 5822 5819 5816 5813 5811 5808 5805 5803 5800 5798 5795 5793 5790 5788 5785 5782 5779 5776 5773 5771 5768 5766 5763 5760 5757 5754 5751 5748 5744 5741
5834 5831 5829 5827 5825 5822 5820 5817 5814 5812 5809 5806 5803 5800 5798 5795 5793 5790 5787 5785 5782 5780 5777 5774 5771 5768 5765 5762 5760 5757 5754 5751 5748 5745 5742 5739 5736 5733
5826 5824 5822 5820 5817 5815 5812 5809 5807 5804 5801 5798 5796 5793 5790 5787 5785 5782 5779 5777 5774 5771 5768 5765 5762 5759 5757 5754 5751 5748 5746 5743 5740 5737 5734 5731 5728 5725
5818 5816 5813 5811 5809 5806 5804 5801 5799 5796 5793 5790 5787 5784 5781 5779 5776 5774 5771 5768 5765 5763 5760 5757 5754 5751 5748 5745 5743 5740 5737 5734 5731 5728 5725 5723 5720 5717
5809 5807 5805 5802 5800 5798 5795 5792 5790 5787 5784 5781 5779 5776 5773 5770 5767 5765 5762 5759 5756 5754 5751 5749 5746 5743 5740 5737 5734 5732 5729 5726 5723 5721 5718 5715 5712 5709
5801 5799 5796 5794 5791 5789 5786 5783 5781 5778 5775 5772 5770 5767 5764 5761 5758 5756 5753 5750 5747 5745 5742 5740 5737 5735 5732 5729 5726 5723 5721 5718 5715 5712 5709 5707 5704 5702
5792 5790 5787 5785 5782 5779 5776 5774 5772 5769 5766 5763 5761 5758 5755 5752 5750 5747 5744 5742 5739 5736 5733 5731 5728 5726 5723 5721 5718 5715 5712 5709 5707 5704 5701 5699 5696 5694
5783 5781 5778 5775 5772 5770 5767 5764 5762 5759 5757 5754 5751 5749 5746 5743 5741 5738 5736 5733 5730 5727 5724 5722 5719 5717 5714 5712 5709 5706 5703 5700 5698 5695 5693 5690 5688 5686
5773 5771 5768 5765 5763 5760 5757 5755 5752 5750 5747 5744 5742 5739 5737 5734 5732 5729 5727 5724 5721 5718 5716 5713 5711 5708 5705 5703 5700 5698 5695 5692 5689 5687 5684 5682 5680 5677
5763 5761 5758 5755 5753 5750 5748 5745 5743 5740 5737 5735 5732 5730 5727 5725 5723 5720 5718 5715 5712 5710 5707 5704 5702 5700 5697 5694 5692 5689 5686 5684 5681 5678 5676 5674 5671 5669
5753 5750 5748 5745 5743 5740 5737 5735 5733 5730 5728 5725 5722 5720 5718 5715 5713 5711 5708 5706 5703 5700 5698 5695 5693 5691 5688 5686 5683 5680 5678 5675 5672 5670 5668 5666 5663 5661
Wind_Speed
9 9 10 10 11 11 11 12 12 13 13 13 13 12 12 12 12 13 14 14 15 15 16 17 17 16 17 18 18 19 20 20 20 21 21 21 21 22
9 9 10 10 11 12 12 12 13 13 13 13 13 13 13 13 13 14 14 15 16 17 17 17 17 17 17 17 18 19 20 20 21 21 20 20 20 22
10 10 10 11 12 12 13 13 13 13 13 14 14 14 14 15 15 15 16 16 16 16 17 18 17 17 18 18 19 19 19 20 20 21 21 21 21 22
11 11 11 12 12 13 14 14 14 14 14 14 14 15 15 16 16 16 17 17 17 18 18 18 17 18 18 18 19 20 20 20 20 21 21 21 22 22
12 12 12 12 13 14 15 15 15 15 15 15 15 16 17 17 18 18 19 19 19 19 20 19 19 19 19 20 20 20 21 21 22 22 22 23 23 24
13 14 14 14 14 15 16 16 16 16 16 16 16 17 18 18 19 19 20 20 20 21 21 20 21 21 21 21 21 22 22 22 23 23 23 24 25 25
15 15 16 16 16 17 17 17 17 17 18 18 18 19 19 20 20 21 21 21 21 22 21 22 22 22 22 23 23 23 24 24 24 24 25 25 26 26
17 17 17 18 18 19 19 19 19 19 19 20 20 20 21 21 21 21 22 22 22 23 23 23 23 24 24 24 25 25 25 25 26 26 26 27 27 27
19 19 19 20 20 21 21 20 20 20 21 21 21 21 22 22 23 23 22 23 23 24 24 24 25 25 25 26 26 26 26 26 27 27 28 28 28 29
20 21 21 21 21 22 21 21 21 21 21 22 22 22 22 23 23 23 23 24 24 24 25 25 26 27 27 27 27 28 28 28 28 28 29 30 30 30
22 22 22 23 23 23 23 23 23 24 24 24 24 24 24 25 25 25 25 26 26 26 26 27 27 27 28 28 29 29 28 29 29 29 30 30 31 31
24 24 24 23 24 24 25 25 25 25 25 26 26 26 26 26 26 26 26 27 28 28 28 28 29 29 29 29 29 29 29 29 29 30 31 31 31 32
25 25 25 25 25 25 25 25 25 26 26 27 27 27 27 27 27 27 28 28 29 29 29 30 30 31 30 30 30 30 30 30 30 30 31 30 31 31
26 26 25 26 26 26 26 26 27 27 27 28 28 28 28 28 29 29 30 30 31 31 31 31 31 31 31 31 31 30 30 30 30 30 30 30 30 30
27 27 27 27 27 28 28 28 28 28 29 29 29 30 30 30 30 30 31 31 32 32 32 32 31 31 31 31 31 30 30 30 30 30 29 29 29 29
29 29 29 29 29 29 29 30 31 31 31 31 31 31 31 31 31 32 32 32 32 32 31 31 31 31 31 30 30 30 29 29 29 29 28 28 28 28
30 31 31 31 31 31 31 31 32 32 32 32 31 31 31 32 32 32 32 32 32 32 31 31 30 30 31 31 30 30 29 29 29 28 28 28 28 27
31 31 31 32 32 32 32 32 32 32 32 32 33 33 32 32 32 31 32 32 32 31 31 30 30 30 30 30 30 30 29 29 29 28 28 28 28 28
31 31 31 32 32 32 33 33 33 33 34 33 33 33 32 32 31 31 31 31 31 30 31 31 31 30 30 30 29 29 29 29 28 28 28 28 28 27
31 32 32 32 32 32 32 33 33 33 33 33 33 33 32 32 31 30 30 30 30 31 31 31 30 30 30 30 29 29 30 29 27 27 28 28 27 27
32 32 33 33 33 33 33 33 33 34 34 34 33 32 31 31 31 31 29 29 30 30 31 30 30 29 29 29 29 29 29 28 27 27 28 28 27 27
32 33 33 33 33 33 33 33 33 34 34 33 33 31 31 30 30 30 29 29 29 30 30 30 29 28 29 28 28 28 28 27 27 27 27 27 27 27
33 33 33 34 34 34 34 34 34 34 33 33 32 31 30 30 30 30 30 30 31 30 29 29 28 28 29 28 28 29 29 28 27 27 27 27 27 27
Wind_Direction
309 308 309 309 307 306 306 307 308 307 307 306 305 305 305 303 304 303 303 303 302 302 301 300 298 297 298 296 296 296 296 295 295 296 295 293 291 289
311 312 313 314 313 311 311 310 309 306 303 302 302 300 301 302 303 304 303 304 303 303 302 303 300 296 297 297 298 297 297 297 298 297 296 295 291 289
310 310 311 310 310 312 313 312 310 307 305 303 300 299 300 300 301 302 302 303 304 304 304 303 303 301 300 299 298 299 299 301 302 299 298 297 293 290
310 309 310 310 310 311 312 312 310 308 306 303 300 299 299 300 300 300 301 303 304 305 306 305 304 304 303 303 301 300 299 300 302 301 300 298 295 291
306 307 307 308 309 310 310 309 308 305 302 300 298 297 297 298 299 300 300 300 301 302 303 303 303 304 303 303 302 302 301 301 302 301 299 298 295 293
303 301 301 303 305 307 307 305 305 303 301 299 298 297 298 299 299 299 299 300 299 300 301 300 301 302 302 302 302 302 303 302 301 301 300 298 296 294
300 300 301 302 304 306 306 303 303 303 300 298 298 298 298 298 298 298 299 298 298 299 298 299 300 301 301 302 301 301 302 302 302 301 300 299 298 297
297 300 301 302 302 304 305 303 301 300 299 298 299 298 297 298 298 298 298 298 298 296 296 296 298 299 300 301 301 301 301 301 301 301 301 300 298 297
300 302 299 299 298 298 298 299 299 298 298 298 298 299 298 297 296 295 295 295 295 295 295 296 298 299 299 301 301 302 301 301 301 301 300 299 298 297
299 298 296 297 297 296 296 297 300 300 300 299 298 298 297 297 297 297 295 295 295 295 295 296 297 299 300 300 300 301 301 301 301 300 300 300 299 297
297 296 295 296 295 296 297 297 298 299 298 297 297 298 297 297 298 297 296 296 297 297 296 297 296 297 298 299 299 299 299 299 299 299 299 299 299 298
296 295 294 294 295 297 298 299 298 298 297 297 297 296 296 296 296 296 296 296 296 296 297 297 296 296 296 297 298 299 298 298 298 299 299 299 299 299
294 294 295 294 295 296 297 298 299 299 298 297 298 297 297 296 295 296 296 296 297 297 297 297 297 296 295 296 296 297 297 298 299 299 299 299 299 299
292 292 294 294 294 296 297 298 298 298 298 297 296 296 295 295 294 294 296 296 296 296 298 298 298 298 297 296 296 297 297 297 299 300 300 300 300 299
289 290 291 291 292 294 294 295 295 296 296 296 295 294 295 295 295 295 295 296 297 295 296 297 298 298 298 297 297 298 298 298 300 300 300 300 300 299
288 288 288 290 292 293 294 295 296 296 296 296 294 294 295 295 295 295 295 296 297 296 295 296 297 297 297 298 299 299 299 300 300 300 299 299 299 298
287 288 289 291 292 292 292 293 296 297 297 295 293 293 294 295 295 295 296 296 296 296 295 295 296 298 297 297 297 298 298 298 298 298 297 297 298 297
289 291 292 292 291 292 293 293 294 296 296 294 294 293 293 295 295 295 296 296 296 295 295 295 296 297 297 296 296 297 297 297 296 296 296 297 296 296
291 293 293 293 293 293 293 293 293 294 294 294 294 294 293 294 295 295 296 296 296 295 294 295 295 296 297 296 295 296 297 296 296 296 296 296 296 296
290 292 293 293 294 294 293 292 291 292 294 294 294 293 292 293 294 295 296 296 296 296 295 295 294 295 295 294 295 296 297 296 295 296 296 295 295 295
291 292 293 292 293 293 291 290 291 292 293 293 292 292 292 292 293 294 295 296 296 296 295 294 294 294 293 293 294 296 296 296 296 296 296 295 295 294
290 291 292 291 291 291 291 290 291 292 293 293 292 291 291 291 293 294 295 297 297 296 296 294 293 293 293 294 294 294 295 296 296 296 295 295 294 292
289 289 290 291 290 290 289 289 290 291 292 292 291 291 290 291 292 293 294 295 297 296 295 293 292 293 293 294 294 293 293 294 295 294 294 293 293 292